Flag for Portugal Weather past 2 weeks in Viseu, Portugal

Now
47 °F

Passing clouds.


Feels Like: 43 °F
Forecast: N/A
Wind: 7 mph from Northwest

Location: Viseu

Current Time: Jan 28, 2015 at 6:38:37 PM

Latest Report: Jan 28, 2015 at 6:00 PM


Visibility: 19 mi

Pressure: 30.32 "Hg

Humidity: 84%

Dew point: 42 °F

Location of ViseuLocation

Historic Weather in Viseu — Graph

°F

Viseu temperature yesterday

Maximum temperature yesterday: 56 °F (at 3:00 PM)
Minimum temperature yesterday: 40 °F (at 8:00 AM)
Average temperature yesterday: 46 °F

Past Weeks' High & Low Weather Summary

 TemperatureHumidityPressure
High59 °F (Jan 26, 2:00 PM)100% (Jan 13, 11:00 PM)30.50 "Hg (Jan 13, 11:00 PM)
Low31 °F (Jan 17, 12:00 AM)31% (Jan 26, 2:00 PM)29.83 "Hg (Jan 18, 5:00 PM)
Average42 °F82%30.21 "Hg
* Reported Jan 13 5:00 PM — Jan 28 5:00 PM, Viseu, Weather by CustomWeather, © 2014

Note: Actual official high and low records may vary slightly from our data, if they occured in-between our weather recording intervals... More about our weather records

Advertising

Viseu weather history for previous 24 hours

 ConditionsComfort  
Time TempWeatherWind HumidityBarometerVisibility
5:00 PM
Jan 28
50 °FPassing clouds.6 mph74%30.30 "Hg19 mi
4:00 PM54 °FPassing clouds.5 mph64%30.29 "Hg19 mi
3:00 PM55 °FPassing clouds.6 mph58%30.29 "Hg19 mi
2:00 PM54 °FPassing clouds.8 mph58%30.31 "Hg19 mi
1:00 PM53 °FPassing clouds.5 mph55%30.34 "Hg25 mi
12:00 PM51 °FPassing clouds.3 mph56%30.37 "Hg25 mi
11:00 AM50 °FPassing clouds.2 mph56%30.37 "Hg22 mi
10:00 AM45 °FPassing clouds.3 mph71%30.40 "Hg16 mi
9:00 AM43 °FPassing clouds.2 mph74%30.39 "Hg16 mi
8:00 AM39 °FChilly.3 mph83%30.40 "HgN/A
7:00 AM38 °FChilly.3 mph85%30.39 "HgN/A
6:00 AM39 °FChilly.5 mph81%30.37 "HgN/A
5:00 AM41 °FQuite cool.3 mph78%30.38 "HgN/A
4:00 AM40 °FQuite cool.3 mph79%30.40 "HgN/A
3:00 AM43 °FQuite cool.3 mph72%30.39 "HgN/A
2:00 AM42 °FQuite cool.3 mph77%30.41 "HgN/A
1:00 AM43 °FQuite cool.3 mph74%30.41 "HgN/A
12:00 AM42 °FQuite cool.5 mph73%30.43 "HgN/A
11:00 PM
Jan 27
43 °FQuite cool.6 mph69%30.43 "HgN/A
10:00 PM44 °FQuite cool.6 mph68%30.43 "HgN/A
9:00 PM45 °FCool.3 mph62%30.43 "HgN/A
8:00 PM44 °FQuite cool.5 mph68%30.43 "HgN/A
7:00 PM48 °FPassing clouds.5 mph59%30.41 "Hg9 mi
6:00 PM48 °FCool.5 mph59%30.41 "HgN/A
Weather by CustomWeather, © 2014

See weather overviewHow to use our weather pages